Theta_e
314 314 315 319 320 323 324 323 329 330 329 324 321 323 321 320 322 321 320 319 320 319 318 319 319 319 319 321 321 323 323 323 324 325 324 322 324 322 323 332 333 328 330 336 339 338 339 339 339 339 339 339 337 337 337 337 335 335 336 335 334 334 335 333 330 329 325 319 319 319 319 320 322 325 325 326 328 328 326 327 330 331 332 332 333 333 331 329 325 323 321 320 320 320 319 318 314
314 315 317 321 322 325 325 325 330 329 328 321 319 322 319 321 322 320 320 319 320 318 318 320 319 320 319 321 322 324 327 326 324 324 324 323 323 321 322 331 333 328 331 335 337 339 338 339 339 339 339 339 337 337 337 337 336 335 335 335 335 335 336 333 330 330 326 320 319 319 321 323 324 324 324 324 326 328 325 325 329 330 331 331 333 332 330 328 322 316 314 314 315 317 317 314 311
315 317 319 322 324 322 326 329 327 327 326 320 317 320 320 321 321 319 320 318 319 318 319 319 318 319 319 320 321 323 327 327 326 325 327 327 322 320 325 333 336 332 333 334 335 338 337 338 339 338 339 338 337 337 337 336 335 336 335 335 335 335 335 334 332 332 329 323 319 320 323 325 326 325 324 324 325 327 326 324 327 330 330 332 332 331 329 324 317 312 310 309 311 312 312 311 309
317 320 323 323 326 325 329 331 329 331 324 321 319 318 320 321 321 319 318 318 319 319 319 319 318 319 319 320 320 322 325 327 328 326 323 323 320 319 328 335 338 334 334 335 333 336 337 336 339 339 339 338 338 337 336 336 335 335 335 334 334 334 334 333 331 331 332 327 322 320 323 326 327 326 324 325 324 326 327 325 326 328 329 330 330 328 325 317 313 311 308 308 309 309 309 309 308
319 322 324 322 328 327 328 328 331 332 320 325 324 316 320 320 320 318 316 318 318 319 319 318 318 316 319 320 319 321 323 325 325 323 319 319 317 319 326 331 336 336 334 335 333 335 336 335 337 338 338 338 339 338 336 335 335 335 335 335 334 334 332 332 331 330 331 330 325 320 323 327 329 327 324 325 326 326 327 326 325 327 327 327 325 321 318 314 314 311 307 307 308 308 309 309 307
319 322 322 321 325 323 330 327 323 324 317 326 323 315 320 317 318 317 315 317 316 319 318 317 318 316 321 321 320 322 323 323 322 319 317 319 318 319 321 322 332 337 333 332 333 336 337 336 336 337 338 338 338 338 337 336 336 336 335 335 335 334 332 331 331 329 329 331 329 323 324 328 328 326 325 326 328 328 327 325 324 324 323 321 317 315 316 316 316 311 307 307 307 308 308 307 306
321 323 321 324 326 323 333 327 319 322 319 320 320 318 318 316 317 316 316 317 316 317 317 318 317 317 321 321 321 323 322 323 322 318 318 318 319 321 321 322 330 336 335 332 333 335 336 336 335 335 338 338 338 337 336 336 337 337 336 335 335 334 333 331 331 329 327 329 330 325 325 328 327 326 327 328 329 330 329 327 325 324 321 319 319 319 321 320 316 312 308 306 306 307 306 306 306
322 323 321 328 332 329 332 324 320 325 321 317 317 319 317 317 317 315 316 317 317 316 316 317 317 319 319 319 322 323 319 319 320 317 318 318 321 324 323 324 327 331 336 336 332 334 334 334 334 334 337 337 337 337 336 336 336 337 336 335 334 334 333 331 331 330 327 327 327 326 327 328 327 327 329 330 330 330 330 330 329 328 325 326 326 325 326 322 317 313 309 306 306 306 305 305 305
321 324 323 327 331 329 328 321 320 322 320 319 316 318 318 318 318 315 315 316 317 315 317 316 317 320 318 318 321 322 318 317 318 317 318 318 320 323 323 323 322 325 333 336 333 332 331 331 333 333 336 337 337 337 336 336 336 337 336 335 334 333 333 330 328 328 327 327 327 328 328 328 327 327 328 330 330 331 331 331 331 329 329 329 329 328 327 324 320 316 312 306 306 306 304 305 304
321 323 322 328 330 323 322 319 319 320 319 319 316 318 318 318 318 316 316 316 317 316 317 317 318 319 317 317 318 318 317 316 317 317 317 317 318 320 322 323 321 321 325 329 329 327 325 328 331 330 334 336 337 337 337 337 336 337 336 336 335 333 332 329 326 326 327 328 328 328 328 328 328 327 327 329 330 331 331 332 332 330 330 329 329 328 326 324 321 319 315 308 305 306 304 304 304
322 322 321 330 329 321 323 321 319 320 319 318 316 318 317 318 318 316 317 316 317 317 317 318 318 317 316 316 315 314 314 315 316 316 315 316 316 316 319 322 323 321 320 321 321 321 320 325 329 329 333 336 336 336 336 337 337 337 337 336 335 334 332 329 325 325 326 327 328 328 328 327 327 328 328 328 329 331 331 331 331 331 330 329 329 327 324 322 321 320 318 311 306 306 305 304 304
322 324 326 327 325 322 324 323 320 320 319 319 318 318 318 318 318 316 317 317 317 317 317 317 316 317 316 314 314 312 312 314 314 315 315 315 315 316 315 318 321 319 318 318 317 318 318 322 328 329 332 334 335 336 335 335 336 337 337 336 335 334 333 331 327 325 325 325 326 327 327 327 327 328 328 326 328 330 331 331 330 330 329 328 327 325 322 321 320 319 319 314 308 306 305 304 303
321 324 330 326 326 326 324 323 322 321 318 319 318 317 318 317 317 316 316 317 316 317 316 316 316 317 316 314 314 312 313 313 314 314 314 314 315 315 315 315 318 318 318 317 317 317 317 320 325 329 331 333 334 335 334 334 335 336 336 336 335 335 333 332 329 326 324 324 325 325 325 326 326 326 325 325 327 329 330 330 330 329 328 327 325 324 322 320 320 319 319 316 310 307 306 304 304
319 320 328 326 327 327 325 323 321 323 319 318 318 316 318 317 317 317 317 317 316 317 316 316 316 317 316 315 314 313 313 313 314 314 313 314 314 315 315 315 315 317 318 318 318 318 318 318 322 327 330 332 334 334 333 333 334 334 335 335 335 335 334 333 330 327 325 324 324 323 324 324 324 323 323 323 325 326 327 328 329 328 326 325 325 324 323 321 320 320 320 317 312 309 306 305 304
316 318 325 325 325 322 324 325 324 326 320 317 318 316 317 317 317 317 317 317 316 316 316 316 316 317 316 316 316 314 314 313 313 313 313 313 314 314 315 315 315 315 317 318 318 318 318 318 320 323 326 329 332 334 333 333 334 334 334 334 335 335 334 333 331 328 326 325 324 323 323 323 323 323 323 322 323 324 325 326 326 325 324 325 325 324 324 322 322 322 322 318 314 312 309 306 305
314 320 325 323 322 320 321 325 325 325 319 316 317 316 317 316 317 317 317 317 316 316 316 316 315 316 316 316 316 314 313 314 313 313 314 314 314 314 315 315 315 315 315 316 317 317 316 317 319 321 324 325 329 332 333 334 334 334 334 334 335 334 334 334 332 330 328 327 325 324 324 323 323 322 322 321 321 323 324 324 324 324 324 325 325 325 324 323 324 324 324 320 316 314 312 309 307
315 322 327 323 321 319 319 322 324 324 319 317 316 316 318 316 317 317 316 317 316 316 316 316 315 315 315 314 314 314 313 313 313 313 314 316 316 315 315 315 315 315 315 315 316 316 316 316 317 318 321 322 325 328 331 333 334 334 334 334 335 334 334 334 333 332 330 329 327 326 325 324 324 323 323 324 324 325 326 325 324 324 324 324 324 324 323 324 325 325 325 323 319 318 318 315 311
321 327 326 321 322 320 318 320 321 321 319 316 316 317 317 317 317 316 316 316 316 316 315 315 314 314 314 313 313 313 313 312 313 314 315 317 317 316 316 314 315 315 316 315 315 315 316 316 316 316 317 319 322 325 328 331 332 332 333 333 333 333 334 334 334 333 333 332 329 327 326 325 325 324 325 327 328 327 326 326 325 324 323 324 324 323 323 325 326 325 325 324 322 322 323 322 318
322 330 326 320 322 319 317 318 317 318 318 316 317 317 317 317 317 317 317 315 315 316 314 313 314 314 313 312 313 312 312 312 313 314 316 317 317 317 317 316 314 314 315 315 315 315 315 316 316 316 316 317 319 322 326 327 328 330 331 331 331 332 333 333 333 332 333 333 331 329 327 326 326 326 326 328 329 327 326 326 325 324 324 324 324 323 323 326 326 325 323 324 323 323 324 323 322
319 327 327 319 319 317 316 317 316 317 318 316 317 317 317 317 317 317 317 315 315 316 314 314 314 314 313 312 312 312 313 312 312 313 314 315 316 316 316 315 314 314 314 314 315 315 315 315 315 316 317 317 318 322 325 326 326 329 330 331 331 330 330 331 331 331 331 332 332 331 329 328 327 330 330 330 330 329 327 327 326 326 326 325 325 324 324 326 326 324 323 323 323 323 325 323 323
319 323 324 317 316 318 317 317 317 317 317 317 318 317 317 317 317 317 316 316 316 315 315 315 315 315 314 313 313 313 313 313 313 312 313 313 314 314 314 313 313 313 313 313 314 314 315 315 315 316 316 318 318 321 327 328 326 327 329 330 331 330 330 330 331 331 331 332 333 333 332 330 330 332 332 332 332 331 330 329 329 329 329 328 327 324 323 325 326 325 325 324 323 323 325 323 323
319 319 319 317 316 318 317 317 317 317 317 317 317 316 317 316 317 317 316 318 319 315 315 316 316 316 315 314 313 313 313 313 313 313 313 313 313 313 313 313 313 313 313 313 313 313 313 314 315 315 316 317 318 321 327 327 324 324 327 329 330 330 330 332 332 331 332 332 333 334 333 332 332 332 332 332 331 331 331 331 330 330 330 329 327 325 325 327 327 327 326 325 325 324 324 322 323
321 319 316 317 317 317 317 317 317 316 316 317 316 316 317 316 316 317 316 317 318 316 315 316 316 315 314 314 314 313 313 313 313 313 313 313 313 313 314 314 313 313 313 313 312 312 313 313 313 314 315 316 320 322 324 325 325 325 327 328 329 329 329 331 333 333 332 333 333 333 333 333 332 332 332 332 331 330 330 331 331 330 330 329 328 327 327 328 328 327 326 326 326 325 323 322 323
321 320 316 317 317 317 317 317 317 316 316 316 316 316 316 316 316 316 316 316 317 316 315 315 315 314 313 314 313 313 313 313 313 313 313 313 313 313 314 314 314 314 313 313 313 312 313 313 313 313 313 315 321 324 324 326 328 328 329 328 329 330 330 330 332 333 333 333 333 333 333 333 333 332 331 331 331 331 330 331 331 330 329 329 329 328 328 327 328 327 326 326 325 324 323 322 323
319 319 317 317 318 317 317 317 317 316 316 316 316 316 316 316 316 315 316 316 316 316 315 314 313 313 312 313 313 312 313 313 313 313 313 313 313 313 313 314 313 314 313 313 313 313 313 313 313 313 312 315 320 324 324 326 328 329 329 328 329 330 330 331 331 332 332 333 333 333 333 332 332 331 331 331 331 331 331 331 330 330 330 329 329 328 328 327 327 327 326 325 323 322 323 324 324
317 318 317 317 317 317 317 317 316 316 316 316 316 316 316 316 315 315 315 316 316 315 314 313 312 312 312 312 312 312 312 313 313 313 313 313 313 313 313 313 313 313 313 313 312 313 313 313 314 313 313 315 319 324 325 327 329 329 330 330 330 331 331 331 331 331 332 332 332 332 332 332 332 331 331 330 330 330 330 330 330 330 329 329 329 327 327 326 326 325 324 323 322 322 324 325 324
316 317 317 317 317 317 317 317 317 317 316 316 316 316 316 315 315 316 315 314 314 314 313 312 312 312 311 312 312 312 312 312 312 313 313 313 312 313 313 313 313 313 313 312 312 312 313 314 314 314 315 316 319 323 325 327 330 330 330 330 330 331 331 331 330 330 330 331 331 332 331 331 330 329 329 329 329 329 329 329 329 329 329 328 328 326 325 324 324 323 323 323 323 323 325 325 324
316 316 317 317 317 317 317 316 316 316 316 316 316 315 314 314 315 316 314 314 314 313 312 311 311 311 311 311 311 312 312 312 313 313 313 312 312 312 312 313 312 312 312 312 312 312 313 314 315 317 317 319 321 323 324 327 330 330 330 330 329 329 330 330 329 329 329 328 329 330 330 329 328 327 327 326 326 328 328 328 328 328 327 326 326 325 325 324 324 323 323 324 324 323 324 325 324
316 316 318 320 318 318 317 316 316 316 316 316 315 316 317 315 314 315 314 314 313 312 312 311 311 311 311 311 311 311 312 312 313 312 312 312 312 312 312 313 312 312 312 312 312 313 314 315 317 320 320 321 323 325 326 327 328 329 330 329 329 329 329 329 328 327 327 327 327 327 326 327 327 327 324 322 324 327 329 328 328 326 325 325 324 324 324 325 324 324 324 324 324 324 324 324 324
318 316 316 322 322 323 320 315 317 316 316 316 315 319 324 320 313 313 314 313 312 311 311 311 310 311 310 310 311 311 312 312 313 312 312 312 312 313 312 312 312 311 312 312 313 313 314 316 318 322 324 324 324 325 327 328 328 328 328 328 328 327 328 328 327 327 327 326 325 325 324 325 326 325 323 323 326 328 328 328 327 326 325 325 324 323 324 324 323 323 323 323 323 323 323 323 322
319 317 319 322 321 329 324 314 316 317 315 315 316 319 325 323 313 311 313 312 312 311 310 310 310 310 310 310 310 311 311 312 312 312 312 312 312 312 312 312 312 311 312 312 313 314 314 316 318 320 325 327 326 327 326 325 326 326 326 326 326 325 325 326 326 325 325 324 324 324 324 324 324 324 324 326 327 327 327 326 326 325 324 323 323 323 323 323 322 322 323 323 323 322 322 321 321
319 319 329 326 320 331 326 313 315 317 314 313 316 319 322 320 313 311 312 311 311 311 311 310 310 310 310 310 310 310 311 311 312 311 311 312 312 312 311 311 312 311 311 312 314 315 314 317 319 318 321 325 325 325 325 324 324 323 324 325 323 322 323 324 324 323 323 323 322 321 321 322 322 323 323 324 324 324 324 324 323 323 322 322 322 323 323 323 323 323 323 322 322 321 320 320 319
324 320 329 329 321 326 324 315 315 315 314 313 315 319 322 319 312 311 312 311 311 311 311 310 310 310 310 310 310 310 311 312 312 312 312 311 311 311 311 311 311 311 311 312 315 318 318 317 320 319 321 325 323 321 324 325 326 324 324 324 323 323 324 323 323 322 322 321 320 319 319 320 321 321 322 323 323 323 323 323 323 322 322 322 322 322 322 322 322 322 321 321 320 319 317 315 313
330 321 322 327 324 322 322 320 316 313 315 315 314 316 319 318 311 310 312 311 311 311 311 311 310 310 310 310 310 310 311 312 312 312 311 311 311 310 311 310 310 312 312 312 315 318 320 318 320 322 322 325 325 323 324 324 324 323 323 323 322 323 323 322 322 321 320 320 320 320 320 321 321 322 322 322 323 323 322 322 322 321 321 321 321 321 321 320 320 319 319 318 316 313 310 307 306
333 327 323 325 325 323 323 323 318 314 316 317 316 315 316 316 312 310 311 311 310 311 311 311 311 310 310 309 310 311 312 312 312 312 310 310 311 310 311 310 311 314 312 312 314 316 318 316 319 324 322 323 325 325 324 322 322 321 320 320 321 322 321 320 320 319 319 320 321 321 322 322 321 321 321 321 322 321 320 319 318 319 319 319 319 319 319 317 316 314 312 310 307 305 303 302 302
332 330 329 327 325 324 323 322 318 315 316 317 316 316 316 316 315 311 310 311 310 310 311 311 311 310 310 310 310 310 311 311 311 311 310 310 310 310 311 309 310 314 312 311 313 316 317 316 317 321 321 321 322 322 323 322 321 320 319 320 320 320 319 319 320 319 320 321 321 321 320 320 320 320 320 319 318 316 314 313 313 315 316 315 315 314 312 310 307 305 304 303 302 301 301 300 300
323 323 326 326 324 324 324 322 317 314 317 320 318 316 316 317 317 313 310 311 309 309 310 310 311 311 310 310 310 310 310 310 311 310 309 309 310 310 310 309 310 313 313 312 314 316 318 317 317 317 318 319 319 320 320 319 319 319 319 319 318 318 319 320 320 320 320 320 320 320 319 319 317 316 314 312 311 309 308 308 308 309 308 308 307 306 304 303 302 301 300 300 300 300 300 299 298
320 320 322 323 324 324 323 321 317 314 317 323 321 318 318 318 318 315 311 309 309 309 310 310 311 311 311 310 309 309 309 309 309 309 308 309 310 311 310 308 311 315 314 314 316 318 318 318 318 317 316 318 318 318 318 317 318 318 318 318 317 317 319 319 319 320 320 319 318 317 315 313 310 308 307 306 305 304 304 304 304 303 303 302 302 301 300 300 299 299 299 299 299 299 299 298 297
321 322 320 323 325 324 323 321 318 315 318 325 325 321 320 319 319 316 311 309 311 311 312 311 311 311 311 310 309 309 309 308 309 308 308 309 310 311 310 308 313 316 315 315 316 317 318 318 318 317 316 317 317 317 317 317 318 318 317 317 317 317 319 319 318 318 316 314 311 309 307 305 304 303 303 303 302 302 301 301 301 300 300 299 299 299 299 298 298 298 298 297 297 297 297 297 296
323 323 320 324 325 323 324 323 319 317 318 321 322 320 318 317 318 318 314 312 312 313 312 312 311 311 311 311 311 310 309 309 309 308 308 309 311 311 310 309 313 316 316 316 314 313 315 316 316 316 315 316 316 316 317 317 317 316 316 317 318 317 317 316 314 312 309 306 305 304 303 302 301 301 301 300 300 300 300 300 299 299 299 298 298 298 298 298 297 297 297 296 296 296 296 295 295
326 326 323 325 325 322 323 323 320 321 322 320 319 321 322 321 320 319 317 313 312 312 311 311 310 311 311 311 310 310 310 309 309 309 308 309 310 311 311 310 310 314 316 316 313 311 313 313 314 315 315 315 316 315 316 316 316 316 316 317 316 314 312 309 307 305 303 303 302 301 300 300 300 300 299 299 299 299 299 298 298 298 298 298 297 297 297 297 296 296 296 295 295 295 294 294 294
325 328 326 323 323 324 323 323 321 325 329 324 320 325 332 332 326 322 320 316 314 312 310 310 311 311 311 310 310 309 309 310 310 310 309 309 310 310 311 310 310 312 315 314 311 312 314 313 313 314 314 315 315 315 316 316 315 315 316 315 313 309 306 304 303 302 302 301 301 300 299 299 298 299 298 298 298 298 298 297 297 297 297 297 297 296 296 295 295 295 294 294 294 293 293 293 293
323 327 327 324 322 322 323 321 322 328 331 324 320 326 330 328 324 323 323 321 319 315 310 310 310 311 311 310 310 309 309 309 309 309 309 309 309 310 311 311 310 312 313 311 311 314 315 314 314 315 315 315 315 315 315 315 315 315 313 310 307 305 303 302 301 301 300 300 300 299 299 298 298 298 298 297 297 297 297 297 296 296 296 296 296 295 295 295 294 294 293 293 293 292 292 292 292
327 326 327 329 323 322 324 322 323 329 329 323 322 325 325 323 323 322 322 322 321 317 313 310 309 310 311 310 310 310 310 309 309 309 308 308 309 309 310 310 311 312 313 311 313 315 314 313 314 315 315 315 314 314 314 314 314 313 309 305 304 303 303 302 300 300 300 299 299 298 298 298 297 297 297 297 297 296 296 296 296 296 295 295 295 295 295 294 293 293 293 292 292 292 292 292 291
327 324 327 329 325 326 328 325 325 326 325 324 325 323 323 325 327 323 320 321 321 318 316 312 308 309 309 309 310 309 310 309 309 309 308 308 308 309 309 309 311 313 313 312 314 314 312 313 314 315 314 314 314 313 313 313 312 308 304 303 303 302 301 301 300 299 299 299 299 298 298 297 297 296 296 296 296 296 296 295 295 295 295 295 295 294 294 293 293 292 292 292 292 291 291 291 291
321 321 326 330 329 329 328 326 326 325 323 325 325 323 323 326 327 324 320 322 323 320 318 314 309 309 309 309 309 309 309 309 308 309 308 308 308 308 309 309 311 314 313 313 315 313 312 313 314 314 314 313 312 312 311 310 308 304 302 302 302 301 301 301 300 299 299 298 298 298 297 297 296 296 296 296 295 295 295 295 295 295 295 294 294 294 293 293 292 292 292 291 291 291 291 291 290
318 323 329 330 329 329 328 327 325 324 324 324 325 324 323 325 329 327 322 324 324 320 319 317 311 309 309 309 309 309 308 308 308 308 307 307 307 308 309 309 310 313 314 314 315 313 312 313 314 313 312 311 310 309 308 306 304 302 302 301 301 302 301 301 300 299 298 298 298 297 297 296 296 296 296 295 295 295 295 294 294 294 294 294 293 293 293 292 292 292 291 291 291 291 290 290 290
319 329 330 327 328 328 327 324 322 324 326 325 324 322 321 324 329 329 324 322 323 322 321 321 314 309 309 309 309 308 308 308 307 307 307 306 306 308 309 309 310 313 314 314 315 313 312 313 313 312 310 308 308 307 305 304 302 301 301 300 301 301 301 300 300 299 299 298 297 297 296 296 296 296 295 295 295 294 294 294 294 294 294 293 293 293 292 292 292 291 291 291 290 290 290 290 289
322 327 326 324 325 327 327 324 323 324 324 322 321 321 321 322 324 324 322 320 322 320 317 317 313 309 309 309 308 308 308 307 307 307 306 306 306 308 309 309 310 312 314 314 314 312 312 313 312 309 307 306 305 304 303 302 301 300 300 300 300 300 300 299 299 299 298 297 297 297 296 296 296 295 295 295 295 294 294 294 294 294 293 293 293 292 292 291 291 291 290 290 290 290 289 289 289
321 322 324 325 324 326 328 326 324 325 325 320 317 319 323 323 323 323 321 318 318 315 312 314 314 312 312 310 309 308 307 307 307 306 306 306 306 307 308 308 309 312 314 314 313 312 312 312 310 307 306 304 303 302 302 301 300 300 299 299 299 299 299 298 298 298 298 297 297 296 296 296 295 295 295 294 294 294 294 294 293 293 293 292 292 292 291 291 291 290 290 290 289 289 289 288 288
319 321 323 325 327 331 331 328 327 328 327 320 315 320 327 327 326 322 314 311 312 312 313 314 313 313 312 310 308 308 307 307 306 306 306 306 306 307 308 309 309 311 313 313 312 312 311 311 308 305 304 302 302 301 301 300 299 299 299 298 298 298 298 298 298 297 297 297 296 296 296 295 295 295 295 294 294 294 293 293 293 293 292 292 292 291 291 290 290 290 289 289 289 288 288 288 288
319 322 324 324 327 329 327 326 324 323 324 321 317 323 327 324 322 316 309 309 310 310 311 311 311 310 309 308 307 307 306 306 306 305 305 305 306 306 308 309 309 310 312 312 311 311 310 308 306 304 303 302 301 301 300 299 299 298 298 298 298 298 298 297 297 297 296 296 296 296 296 295 295 295 294 294 294 293 293 293 293 292 292 292 291 291 290 290 289 289 289 288 288 288 288 288 287
320 320 322 321 324 325 325 325 321 319 323 324 320 323 324 321 320 317 314 314 313 310 308 308 308 307 307 306 306 306 306 306 306 305 305 304 305 306 308 309 309 309 311 311 310 310 309 306 304 303 302 301 300 300 299 299 298 298 298 298 298 297 297 297 297 297 296 296 296 296 295 295 295 294 294 294 293 293 293 293 292 292 292 291 291 290 290 289 289 288 288 288 288 288 287 287 287
321 321 320 319 322 326 327 327 324 323 325 324 322 323 324 323 322 319 315 316 317 315 310 307 305 305 305 306 306 306 306 306 305 305 304 304 305 305 307 309 309 309 310 310 310 309 307 305 303 302 301 301 300 299 299 298 298 298 298 298 297 297 297 297 296 296 296 296 296 296 295 295 295 294 294 294 293 293 293 293 292 292 291 291 290 289 289 289 288 288 288 288 287 287 287 287 287
318 320 319 320 326 326 325 325 326 327 326 326 325 324 322 322 322 321 317 317 320 318 312 309 307 304 304 305 305 305 305 305 304 304 304 304 305 306 307 309 310 310 311 311 310 308 306 304 303 302 301 300 300 299 299 298 298 298 298 298 297 297 296 296 296 296 296 296 296 296 295 295 295 294 294 294 294 294 293 293 292 292 291 290 290 289 289 288 288 288 287 287 287 287 287 287 287
315 316 316 321 326 325 324 324 324 327 327 326 327 325 323 321 321 323 321 319 319 316 313 312 308 304 304 305 305 304 305 305 305 304 304 305 306 306 307 308 310 310 310 310 309 306 304 303 302 301 301 300 299 299 298 298 297 297 297 297 297 296 296 296 296 296 296 296 296 295 295 295 295 294 294 294 294 294 293 293 292 292 291 290 289 289 288 288 288 287 287 287 287 287 287 287 287
317 318 318 319 320 320 323 323 323 327 328 327 326 324 325 325 321 319 321 321 319 316 314 312 307 305 306 306 305 306 306 306 305 305 305 305 306 306 307 308 309 310 310 308 307 305 303 303 302 301 300 300 299 299 298 298 297 297 297 297 296 296 296 296 296 296 296 296 295 295 295 295 294 294 294 294 294 294 294 293 292 291 290 289 289 288 288 288 287 287 287 287 287 287 287 286 286
318 318 319 319 318 320 323 322 322 323 324 327 327 324 325 326 321 317 318 320 318 313 313 311 307 306 307 306 307 307 307 307 306 305 305 306 306 306 306 308 309 309 308 307 305 304 303 302 302 301 300 300 299 299 298 297 297 297 297 296 296 296 296 295 295 295 295 295 295 295 295 295 294 294 294 294 294 294 293 293 292 291 290 289 288 288 288 288 288 287 287 287 287 287 286 286 286
Wind_Speed
3 4 4 4 2 1 4 6 2 2 4 4 2 3 2 2 4 4 4 4 4 4 6 8 12 14 14 15 18 18 14 5 2 4 5 3 4 5 6 6 4 5 7 9 13 12 10 10 10 10 9 8 7 7 6 5 5 5 5 7 7 8 8 8 7 8 9 10 12 12 13 14 14 13 13 12 11 10 9 9 9 10 9 9 9 9 10 11 14 14 13 12 10 9 8 8 8
5 5 4 3 1 4 3 4 2 2 5 4 1 3 2 3 6 5 5 4 3 2 7 11 14 15 20 21 20 19 16 13 12 13 12 7 7 6 7 9 6 6 8 7 12 13 10 9 10 10 9 9 7 6 6 5 5 5 5 5 7 7 8 8 8 9 10 10 11 12 13 14 14 13 13 12 11 10 8 7 8 9 8 8 8 8 9 11 14 14 14 13 11 10 9 8 7
6 5 3 2 1 5 3 3 3 3 4 4 1 1 2 5 6 5 6 5 5 5 5 8 13 13 16 15 13 12 8 11 14 13 12 8 7 7 8 11 8 6 7 6 12 13 10 8 8 9 10 10 8 7 6 5 5 5 5 5 6 6 7 8 8 8 9 10 11 11 12 13 13 13 12 12 11 10 8 7 7 7 7 7 7 7 9 12 14 14 14 13 12 11 9 8 7
6 5 3 1 2 5 4 3 3 5 4 3 1 2 3 7 7 6 8 7 6 7 4 5 9 12 17 11 7 11 8 8 8 7 8 7 9 10 11 12 9 6 7 7 11 12 10 8 7 8 8 8 8 7 5 4 4 4 4 4 4 5 5 6 7 7 7 8 8 9 10 10 11 11 11 11 11 10 9 7 6 6 5 6 6 8 10 13 15 15 15 14 13 11 9 8 7
6 5 4 3 4 3 2 2 2 5 2 4 3 1 5 7 7 7 9 9 7 8 8 6 4 9 16 10 5 6 4 4 4 7 10 9 10 11 12 11 9 7 7 7 10 11 10 9 7 7 7 7 7 7 6 4 4 4 4 4 4 4 5 5 6 6 7 7 6 7 7 8 9 10 10 11 10 9 8 7 6 5 4 5 7 9 11 15 17 17 16 15 14 12 10 9 8
5 4 2 5 4 2 2 3 3 4 0 4 5 3 6 8 10 11 10 10 9 8 9 9 7 11 13 12 13 9 4 3 3 7 11 11 10 10 11 11 10 8 7 9 10 10 9 9 8 8 7 6 6 6 6 5 5 4 4 4 4 4 5 5 4 5 6 6 5 6 6 6 7 8 9 10 9 9 8 7 6 5 5 7 9 12 14 17 18 18 17 16 14 13 11 10 9
5 3 3 5 3 3 4 3 2 3 2 2 6 5 7 10 14 14 10 7 7 7 9 10 11 13 9 6 12 12 6 4 5 9 12 11 9 9 11 13 12 9 7 8 9 9 9 8 8 9 8 7 6 6 5 5 5 4 4 4 4 4 5 5 4 4 5 6 5 5 6 5 6 7 7 8 9 8 7 6 6 7 7 9 12 14 17 18 18 19 18 17 15 13 11 10 9
5 5 5 4 2 3 4 3 2 2 2 2 5 6 8 9 12 12 7 5 5 5 8 9 11 9 3 6 8 7 8 7 7 12 12 11 10 9 10 13 12 10 8 7 7 7 8 8 9 10 10 8 7 7 6 5 5 4 4 4 4 4 4 4 4 3 4 5 5 5 5 5 5 5 6 7 7 7 6 5 7 9 10 12 13 15 17 18 18 19 19 18 16 13 11 10 9
5 5 4 3 2 3 4 3 2 2 2 2 4 6 8 7 7 8 6 7 7 6 7 5 5 6 6 12 11 6 9 9 8 11 11 11 10 9 8 10 10 10 10 9 9 8 8 9 10 11 11 10 8 7 6 5 5 5 4 4 4 4 4 4 4 3 3 4 4 4 4 5 4 4 5 5 6 5 5 4 6 10 11 12 13 15 17 18 18 18 19 18 16 14 12 10 8
5 4 1 2 3 4 3 1 1 2 2 4 5 7 6 6 8 9 8 8 8 7 7 7 8 12 11 12 10 7 8 8 7 8 10 10 9 9 8 9 8 8 9 11 11 10 10 10 11 12 11 11 9 8 7 6 5 5 5 5 4 4 4 3 3 3 2 2 3 3 4 4 3 3 4 4 4 4 4 3 5 9 11 12 13 14 16 17 17 17 18 17 15 14 12 10 8
4 3 1 3 4 1 2 3 3 3 4 4 4 6 5 4 8 10 10 8 9 8 6 9 11 14 12 8 8 7 6 6 6 7 8 9 8 7 8 8 8 8 8 8 8 8 9 11 13 13 12 11 10 9 8 7 6 6 6 5 4 4 4 3 3 3 2 2 2 2 2 2 2 2 3 3 3 3 3 3 5 8 9 11 12 13 15 16 16 16 16 16 14 13 12 10 8
3 3 3 4 1 1 3 5 5 4 4 4 2 4 5 4 6 5 8 9 9 10 8 7 5 10 8 5 9 9 6 7 7 6 6 7 8 7 7 8 9 8 7 6 6 6 8 11 14 14 12 11 11 10 9 8 7 7 7 6 4 4 4 3 3 2 2 1 1 1 1 1 1 2 1 2 3 3 4 4 5 7 9 10 11 13 14 15 15 15 15 15 14 12 12 10 7
3 2 5 2 2 3 4 4 5 4 3 2 4 7 5 4 6 4 8 11 9 8 6 6 4 7 7 5 10 10 6 6 7 6 5 6 7 8 8 8 9 9 8 7 6 5 6 11 14 15 14 13 12 11 10 9 9 8 7 6 5 5 4 3 3 2 2 1 1 0 1 0 0 0 1 2 3 3 4 5 6 7 9 10 11 12 13 14 14 14 14 14 13 12 11 10 8
3 2 4 1 1 3 5 4 3 4 1 3 7 10 6 5 7 9 11 10 7 6 3 3 5 7 7 7 8 9 7 4 5 5 5 5 6 7 8 9 9 9 9 8 8 6 6 9 13 16 16 16 15 13 12 11 10 10 8 8 7 6 5 4 4 3 2 2 1 0 0 1 0 1 2 2 2 3 4 5 6 7 9 9 10 12 13 14 14 14 14 13 13 12 11 10 8
4 2 3 2 3 1 2 3 4 6 2 3 8 11 8 7 6 9 10 6 5 6 4 2 4 5 6 6 7 11 8 4 4 5 5 5 6 6 8 10 10 10 10 10 10 9 8 8 11 15 18 18 18 16 14 13 12 11 9 9 8 7 6 5 5 4 3 2 1 1 1 1 1 1 2 2 3 3 4 5 5 7 8 8 10 11 13 13 13 13 13 13 13 14 13 12 10
4 3 4 3 2 0 1 2 5 5 2 4 8 10 8 6 5 8 7 5 7 5 3 2 3 5 6 7 9 10 6 4 6 7 8 7 7 8 9 11 12 13 13 12 12 11 11 10 11 14 17 18 19 19 17 15 14 13 11 10 9 8 7 6 6 4 3 1 1 2 2 2 2 2 2 3 3 3 3 4 5 6 6 8 9 11 11 12 12 12 13 13 14 15 16 15 14
4 3 5 2 1 1 1 1 3 4 3 4 8 9 6 3 4 6 6 6 8 6 3 4 3 5 6 7 8 7 4 5 7 9 10 8 8 9 10 11 12 13 14 14 14 13 12 11 11 12 14 15 18 20 18 16 15 14 13 12 11 10 8 6 5 4 2 2 3 3 3 3 3 3 3 3 3 3 3 4 5 5 6 7 9 9 10 10 10 11 12 12 13 15 17 17 16
4 2 4 1 0 1 2 1 3 6 5 5 8 6 5 5 4 6 6 7 10 7 6 6 4 5 5 5 6 5 5 6 7 10 11 10 10 10 11 12 12 12 12 13 14 14 13 12 11 11 12 11 14 17 16 16 16 15 14 13 12 11 10 7 6 4 4 4 4 5 5 5 4 4 4 4 3 2 1 2 3 4 5 6 7 8 8 8 9 9 10 10 11 12 16 18 18
4 3 4 0 2 2 3 3 4 6 7 8 7 6 7 8 7 6 3 7 12 8 6 7 7 7 6 5 5 6 7 7 9 11 11 12 12 11 11 11 10 10 10 11 12 13 13 13 12 10 10 10 11 13 13 13 16 16 14 13 12 11 11 10 8 7 7 7 6 7 7 6 6 6 6 4 3 2 2 2 3 4 4 5 6 6 6 7 8 10 10 9 10 12 15 17 17
3 3 4 2 4 3 7 10 9 8 12 10 7 6 8 7 6 6 2 6 8 6 8 8 8 9 7 6 6 6 7 8 9 11 13 13 13 12 11 11 9 9 9 10 10 11 11 13 13 12 11 11 11 12 13 11 13 16 13 11 11 12 12 12 11 10 10 10 8 9 8 7 6 6 6 4 3 2 3 3 2 2 3 3 3 4 4 5 7 10 12 11 13 13 14 16 16
2 3 3 3 3 4 5 8 10 10 13 12 8 5 5 6 6 5 3 4 2 6 12 11 11 12 11 9 8 8 8 8 8 9 10 11 11 11 10 9 8 8 8 9 9 8 10 11 13 14 13 13 12 13 14 12 12 14 13 11 11 12 13 13 14 12 12 12 9 9 8 7 6 7 7 5 4 2 2 2 2 2 1 1 1 3 3 4 5 8 10 11 14 13 13 14 15
2 2 4 3 5 3 2 5 6 7 9 10 7 5 5 6 6 4 4 3 4 9 13 13 13 13 10 10 10 9 8 7 7 6 7 7 7 7 7 7 7 7 7 8 7 7 9 11 12 13 14 14 13 13 15 14 13 12 13 14 13 14 15 14 13 13 14 12 9 9 9 8 8 8 8 7 5 5 6 3 2 0 1 1 0 1 1 1 3 5 7 9 11 12 13 12 13
2 0 3 7 6 5 4 3 4 4 6 7 5 5 6 5 2 4 7 7 7 10 13 14 13 11 8 9 11 11 9 8 7 6 5 5 5 6 6 7 7 7 8 8 6 7 10 10 11 12 14 15 15 15 16 16 13 12 13 15 15 15 16 15 13 13 13 12 10 9 9 9 9 9 8 7 6 6 6 5 4 3 3 2 1 1 1 1 3 5 6 7 7 9 12 12 12
3 0 1 5 4 6 5 3 3 3 3 4 3 4 5 4 2 4 7 9 9 11 14 14 12 10 9 9 12 12 11 9 8 7 7 6 6 7 7 7 8 9 9 8 8 9 10 10 10 11 14 16 17 18 19 17 14 14 14 15 16 16 17 16 13 13 13 12 11 10 9 9 8 8 7 6 6 5 4 5 6 5 4 4 3 3 3 3 4 5 5 4 6 7 9 11 11
4 1 1 2 1 4 4 4 4 4 3 4 3 4 6 6 4 5 8 10 11 12 14 13 11 10 10 11 13 13 12 11 9 9 8 8 7 7 7 8 8 9 9 9 9 9 10 10 10 11 15 18 20 21 21 18 17 17 16 16 17 17 18 16 14 14 14 13 12 11 10 9 9 8 8 7 6 5 5 5 6 7 6 4 5 5 5 5 4 5 7 6 7 8 8 8 9
1 1 2 2 1 3 6 7 7 7 6 6 5 6 8 8 5 6 9 13 13 13 13 12 11 11 11 12 14 13 12 11 10 9 9 8 8 7 8 8 8 9 9 9 9 9 9 10 11 12 15 18 21 22 21 20 19 18 18 18 18 18 18 17 15 13 13 13 12 11 9 9 8 8 8 7 6 6 6 5 5 6 5 4 5 6 5 6 7 7 9 8 7 7 7 8 8
0 1 3 5 7 7 8 10 10 8 7 8 6 4 7 6 4 5 9 15 15 14 12 11 12 12 13 14 15 14 13 11 10 10 9 8 8 8 8 7 7 8 8 9 8 8 10 11 12 14 16 18 20 22 22 21 20 19 19 19 19 19 18 17 15 13 12 11 11 9 8 8 8 8 7 7 7 6 5 5 6 6 5 5 6 6 6 7 8 8 8 7 5 5 5 7 7
1 2 5 8 9 10 10 11 11 9 6 10 9 3 4 3 4 7 12 17 15 15 14 13 13 13 14 15 15 15 13 12 10 10 10 8 8 8 7 7 7 7 8 9 8 9 10 12 14 14 16 17 18 20 21 21 21 20 19 19 19 18 18 16 14 12 11 10 10 9 8 8 8 7 6 6 7 7 6 5 5 5 6 6 6 6 7 7 8 7 6 6 5 5 5 6 6
1 1 3 6 7 6 11 13 13 11 4 8 9 2 4 5 6 8 12 17 16 14 14 14 15 14 15 15 15 14 13 11 10 10 10 9 8 8 8 8 7 7 8 8 9 10 11 13 15 14 14 16 17 18 19 20 19 19 18 17 16 16 15 12 11 10 10 9 9 9 9 9 8 8 7 7 7 6 6 5 5 5 5 5 5 6 7 6 6 5 5 4 5 5 6 6 6
2 1 1 3 6 5 9 10 13 11 4 9 9 2 6 6 7 8 12 17 17 15 15 16 16 16 16 16 15 14 12 12 11 11 10 10 10 9 9 9 8 8 8 8 9 11 12 13 16 16 13 13 15 16 18 19 18 17 16 15 15 14 11 9 10 10 9 9 8 9 9 9 8 7 6 5 5 6 6 5 5 5 5 4 5 5 5 4 3 3 3 4 5 6 6 6 7
1 1 1 1 2 5 6 3 13 9 4 11 9 1 7 7 6 11 14 17 18 17 17 17 18 17 17 16 15 14 13 12 12 12 11 11 11 10 10 10 10 9 9 9 9 10 12 12 14 17 16 13 13 15 16 17 17 16 14 14 14 13 10 9 8 7 7 7 7 8 8 8 8 7 7 6 5 5 5 5 6 6 6 5 5 4 4 3 3 4 4 5 5 6 6 6 7
1 1 3 2 2 5 6 3 13 8 3 9 7 1 7 7 7 14 15 17 18 18 19 19 20 19 18 17 16 15 15 14 14 13 13 13 12 11 11 11 11 10 9 9 9 9 10 11 10 13 17 15 14 14 14 14 14 14 13 12 11 10 9 9 8 7 7 7 7 7 7 8 8 8 9 9 7 5 5 6 5 4 3 3 2 3 3 3 3 3 4 5 5 5 5 6 7
2 2 3 2 2 3 4 2 9 8 5 6 5 2 4 5 9 16 16 19 20 18 19 21 21 21 20 19 18 18 17 17 17 16 16 15 13 12 12 12 12 11 9 10 11 10 9 11 10 9 14 14 13 15 15 14 13 13 13 11 10 10 10 9 9 8 8 8 7 6 6 6 7 6 6 7 6 5 4 3 3 2 2 1 1 2 2 1 2 2 3 5 5 6 7 7 7
4 0 3 4 3 2 2 4 5 8 7 5 5 4 6 5 8 17 19 21 21 20 22 24 24 23 22 21 20 21 20 20 19 18 16 15 13 12 11 12 11 10 10 11 13 14 13 13 13 11 13 15 14 17 17 14 14 14 13 12 11 11 11 11 11 10 9 9 8 8 8 8 8 8 8 7 6 6 5 4 4 4 3 2 2 1 0 1 2 3 5 5 6 6 6 6 7
3 3 2 4 3 2 4 3 3 8 5 4 5 5 10 9 7 16 21 22 24 25 25 25 26 26 24 24 23 23 22 20 19 18 16 15 13 11 11 11 12 12 11 11 12 14 13 13 16 15 15 17 16 17 16 14 15 15 13 13 13 12 12 12 12 11 10 10 10 11 10 10 10 9 8 7 6 5 4 4 4 4 4 3 2 1 1 2 3 3 4 4 5 7 8 10 11
6 5 4 4 3 4 4 4 5 8 4 5 7 7 10 10 8 13 20 24 26 26 23 21 25 26 26 25 25 24 23 22 20 18 15 14 13 11 12 12 13 14 12 12 13 14 12 12 17 18 17 17 17 17 16 16 16 14 13 15 15 14 14 15 14 13 12 12 11 11 10 9 8 7 6 6 5 5 5 5 5 5 4 3 2 1 2 3 4 5 6 7 8 8 9 11 12
4 3 3 4 4 5 4 3 4 6 4 6 9 8 9 10 8 12 20 23 22 23 21 22 25 28 29 28 27 26 24 22 21 18 15 15 15 13 13 13 14 15 13 13 14 16 15 13 16 18 17 17 17 18 17 16 14 15 17 17 15 16 16 16 16 15 14 13 11 10 9 8 7 7 7 7 8 8 9 10 9 9 8 7 6 6 7 7 7 7 7 7 7 6 8 11 12
6 4 4 5 3 5 5 3 3 3 3 5 5 6 9 10 8 11 15 15 18 25 26 25 28 29 31 31 29 27 25 24 22 20 17 17 17 16 16 15 16 17 17 17 17 18 17 17 17 17 18 18 17 17 16 15 15 16 17 16 16 18 19 17 16 15 14 12 11 10 10 11 11 12 12 12 13 13 13 13 12 12 11 9 8 8 8 8 7 8 7 7 8 9 9 10 10
7 5 3 5 4 4 5 4 2 1 2 4 5 5 8 10 8 10 13 16 23 33 34 33 33 33 34 33 31 29 28 27 25 22 20 19 20 19 18 17 19 19 19 20 20 20 20 20 19 17 17 17 17 16 15 16 18 17 15 16 17 19 19 17 15 15 14 13 14 15 16 17 16 16 16 14 14 14 13 12 12 11 10 9 9 8 8 7 8 8 9 10 11 11 11 11 11
5 5 3 4 4 2 3 4 4 2 1 3 4 6 7 8 7 10 18 23 24 30 34 34 33 34 36 36 35 34 33 31 29 25 22 22 23 22 21 20 23 23 22 22 22 22 23 22 20 19 17 17 17 17 17 18 19 18 16 18 18 18 19 18 17 18 18 18 20 20 19 18 17 16 15 14 12 12 11 10 10 10 9 9 8 7 7 7 9 9 10 11 11 12 12 13 13
4 5 5 4 3 5 6 3 2 3 4 3 4 6 7 6 8 10 12 14 16 21 25 28 29 31 32 33 34 35 35 33 31 28 25 25 26 25 23 22 24 26 25 23 21 21 22 21 19 19 19 19 19 19 19 19 19 20 20 21 20 20 20 21 22 24 23 22 22 21 19 17 16 15 14 12 11 10 10 9 9 8 8 7 7 7 7 8 9 9 10 11 12 13 14 14 14
4 4 7 7 6 7 6 1 3 4 5 3 2 3 7 4 6 9 5 2 9 14 17 24 28 28 29 32 34 34 33 32 30 27 26 27 27 26 25 24 26 28 27 24 21 21 21 20 20 20 19 19 19 19 19 18 18 20 21 22 24 25 27 26 25 25 24 22 21 20 19 16 14 13 12 11 10 9 8 8 8 7 7 7 8 8 8 9 9 10 11 12 13 14 14 13 14
3 5 6 8 8 7 6 2 1 1 4 3 3 2 7 6 5 9 6 5 9 10 11 19 26 27 31 34 35 35 34 32 30 27 26 28 29 29 28 27 27 28 28 25 23 24 22 21 21 20 20 20 19 19 19 19 19 19 20 22 25 27 29 28 25 24 22 20 19 18 17 16 13 11 11 10 9 8 8 8 7 7 8 8 9 9 9 10 11 12 13 13 14 14 14 14 15
4 5 4 6 7 7 6 4 3 3 3 4 2 3 5 9 7 7 8 10 11 9 10 14 22 27 30 33 34 36 36 34 33 30 29 29 30 30 30 29 28 28 27 26 26 25 24 23 23 22 21 21 20 20 20 20 20 21 23 25 27 27 26 26 25 23 20 19 18 17 15 14 13 11 10 9 8 8 7 7 7 8 8 9 10 10 11 12 13 14 14 14 15 15 16 16 16
6 5 5 6 5 5 3 4 2 1 2 4 3 2 3 9 6 2 4 8 10 12 13 14 20 26 28 31 34 35 35 34 33 32 30 30 30 31 30 29 29 29 28 27 27 26 25 25 24 23 23 22 22 22 22 21 21 23 26 27 28 26 24 24 23 21 20 18 16 15 14 13 12 10 9 8 7 7 7 7 7 8 9 10 11 12 13 13 13 13 14 14 15 16 16 16 16
4 3 6 6 4 4 5 4 3 3 2 5 6 4 4 8 5 2 1 4 9 11 12 13 20 28 30 31 33 33 33 33 32 31 30 30 30 31 30 30 30 31 29 28 28 27 27 27 25 25 24 24 24 24 24 23 23 25 27 26 25 24 23 23 22 21 19 17 15 15 14 12 11 9 8 7 7 6 6 7 7 8 9 10 11 12 12 12 12 13 13 14 15 15 15 16 16
7 6 6 7 6 5 4 3 4 2 5 6 9 10 7 6 4 4 4 5 7 8 8 8 14 25 31 32 33 33 33 33 31 30 29 29 29 31 32 31 33 33 31 30 30 29 28 28 27 26 25 24 25 26 25 25 26 26 25 23 21 21 21 21 21 20 18 16 15 14 13 12 10 9 8 7 6 6 6 7 7 8 9 10 10 10 11 11 12 12 13 13 13 14 14 15 15
7 5 4 3 4 4 5 4 4 1 7 6 10 12 10 8 6 3 5 5 5 6 7 7 10 21 31 34 35 35 34 33 32 31 31 30 31 34 35 34 35 35 34 33 32 30 30 29 27 27 26 26 26 27 27 28 29 27 24 22 20 19 18 18 18 17 17 16 14 13 13 11 10 8 7 6 6 6 6 6 6 7 8 8 9 9 10 10 11 11 12 12 12 13 13 13 13
5 5 6 3 2 3 3 2 0 4 7 4 7 8 6 10 8 7 9 10 7 7 7 9 12 21 29 33 36 37 36 35 34 34 34 33 34 37 38 37 37 38 37 36 34 33 31 30 29 28 28 28 28 28 29 29 29 27 24 22 20 19 18 17 16 15 15 15 13 12 12 10 9 8 7 6 5 5 4 5 6 6 7 7 8 8 9 9 9 10 10 11 11 11 11 12 12
5 6 6 5 3 1 3 4 2 4 5 4 3 5 3 6 6 10 14 14 13 10 9 11 14 20 27 32 36 36 37 37 37 37 37 36 36 38 39 39 39 40 39 38 36 35 33 32 31 30 30 30 30 30 30 30 29 27 24 22 20 19 18 17 16 15 15 15 13 12 11 9 8 7 6 5 4 4 3 4 5 6 6 7 7 7 8 8 8 9 9 9 9 9 10 10 11
5 4 6 5 5 4 4 4 3 4 4 4 1 3 4 3 3 7 9 9 8 9 11 10 11 17 23 28 32 34 36 37 37 38 38 38 37 37 40 40 40 41 40 39 38 36 35 34 33 33 33 33 32 32 31 31 29 27 25 23 21 19 18 17 16 15 15 14 13 12 10 9 8 7 6 4 4 3 3 4 4 5 5 6 6 7 7 7 8 8 8 8 9 9 9 10 10
3 3 5 3 5 5 3 3 4 2 2 3 2 4 5 4 5 6 3 5 3 3 7 9 11 16 21 26 31 34 36 37 38 38 39 38 37 38 40 40 40 41 41 41 40 38 37 36 36 35 35 35 34 33 32 31 29 28 26 24 22 20 19 18 18 17 15 14 12 11 9 9 8 6 6 4 4 3 3 3 4 5 5 6 6 6 7 7 7 7 8 8 8 8 9 10 10
2 2 4 4 4 5 2 3 1 2 3 4 4 5 5 3 8 8 4 3 4 3 4 10 13 17 22 27 32 34 36 37 39 39 40 39 38 38 40 41 41 42 43 42 41 39 38 38 38 37 37 36 35 34 33 31 30 28 27 25 23 21 20 19 18 17 16 15 13 11 9 9 8 7 5 5 4 3 3 3 3 4 5 6 6 6 6 7 7 7 8 8 8 8 9 9 9
6 4 5 2 2 2 2 1 3 2 4 5 4 7 5 2 6 4 5 3 8 7 6 7 11 17 23 28 32 34 35 36 37 38 39 39 39 39 40 41 42 43 43 42 41 40 39 39 39 39 38 37 36 34 33 31 30 29 27 25 23 22 20 19 18 17 16 15 13 12 10 9 8 7 6 5 4 3 2 3 3 4 5 6 6 6 6 7 7 7 8 8 8 9 9 9 9
5 4 4 4 1 1 2 2 2 2 4 5 3 5 6 7 6 1 4 9 11 10 7 6 10 18 25 28 31 33 34 35 37 38 39 39 39 40 41 42 43 43 43 42 41 40 40 39 39 39 38 37 36 35 34 32 30 29 27 25 24 23 22 21 19 17 16 14 13 12 11 10 9 8 6 5 3 2 2 3 3 5 5 6 6 6 6 6 7 7 7 8 8 9 10 10 10
3 2 2 2 2 3 4 3 3 3 3 5 4 4 5 7 7 8 10 13 14 12 9 9 14 23 28 30 32 33 35 37 38 40 40 40 39 40 41 43 44 44 43 43 42 42 42 41 40 40 39 38 37 36 35 33 31 30 28 26 25 24 23 22 20 19 17 15 14 13 12 11 9 8 6 4 2 1 2 3 3 5 5 5 6 6 6 6 7 7 8 8 9 10 10 11 10
3 3 4 2 1 2 1 2 2 4 3 3 4 8 7 4 5 10 13 14 14 13 12 12 18 26 30 31 33 36 38 39 39 41 41 40 40 41 42 43 44 44 44 44 44 44 43 43 42 42 41 40 39 37 35 34 32 30 28 27 26 26 25 23 22 20 18 17 16 15 13 12 10 8 7 5 2 1 1 3 4 5 5 5 5 6 6 6 7 8 9 9 10 10 10 11 10
6 7 8 7 6 4 1 4 3 4 4 4 3 9 11 4 4 8 11 11 11 14 14 14 20 28 31 32 35 37 38 39 39 40 40 40 41 42 43 45 46 46 46 46 46 45 45 44 44 43 42 41 40 38 36 35 33 31 29 28 27 27 26 25 23 22 20 19 18 16 14 13 11 9 8 6 5 3 3 3 4 5 5 5 6 6 6 7 8 8 9 9 10 10 10 10 10
Wind_Direction
180 177 207 212 218 66 37 28 26 353 66 93 96 95 67 86 98 70 48 53 68 13 54 73 44 61 93 98 99 82 56 55 98 104 134 173 130 116 120 140 167 147 150 164 172 171 169 166 157 154 148 144 142 134 121 103 93 90 77 65 64 65 68 65 62 84 93 100 106 101 93 86 79 72 71 72 71 69 65 63 59 56 49 41 31 22 22 19 13 9 7 8 10 14 20 24 27
154 168 196 186 87 35 35 39 70 8 49 70 19 105 107 64 71 76 79 73 106 110 87 76 51 70 101 99 93 78 54 61 85 104 119 116 117 129 118 139 167 141 128 149 170 170 171 171 160 158 156 151 147 140 129 108 95 89 82 68 64 64 68 63 61 82 92 99 105 100 94 86 78 70 66 64 66 69 65 66 63 59 52 46 34 17 17 12 6 5 4 5 7 9 14 21 32
139 155 170 176 42 27 36 48 77 73 72 93 344 318 92 80 94 115 99 88 98 97 102 78 57 71 90 82 72 79 76 77 88 101 108 111 122 124 115 134 153 137 118 129 163 169 170 172 164 163 163 155 150 147 135 117 107 99 92 78 71 66 65 65 69 84 91 101 105 102 98 87 78 71 67 62 63 64 62 67 70 66 56 53 40 12 11 8 4 6 5 6 6 7 11 20 37
132 135 122 115 31 30 49 57 95 104 108 136 78 342 102 112 123 120 99 89 88 80 87 85 65 76 84 78 78 85 82 75 91 110 108 122 133 124 121 135 151 144 121 127 159 167 168 170 167 170 167 160 158 150 135 120 114 111 104 93 83 70 69 69 74 88 95 102 106 106 97 82 74 67 65 61 62 65 66 71 78 74 60 60 33 3 8 9 10 10 7 8 8 8 11 18 36
122 126 107 43 35 37 70 64 81 91 130 172 122 134 127 125 128 119 110 100 94 77 70 87 90 88 82 69 74 72 65 83 103 117 117 124 127 124 128 140 150 149 131 131 155 164 167 167 167 176 176 171 165 151 139 131 127 123 115 106 95 79 77 77 80 92 105 109 106 108 92 76 70 62 61 60 62 66 69 71 77 71 52 42 8 0 10 11 14 14 11 12 13 13 14 20 33
123 131 79 26 39 58 73 64 58 66 197 162 126 167 139 129 129 122 114 102 98 89 76 91 115 104 84 67 68 55 49 118 128 111 114 120 119 124 132 136 141 154 147 129 147 165 167 166 170 178 182 184 172 159 150 143 142 135 123 115 101 90 85 86 91 93 112 121 112 109 93 78 70 60 58 60 64 65 65 64 66 58 37 21 8 11 15 13 15 15 15 15 18 20 21 25 32
114 96 35 22 41 50 83 104 103 75 355 107 133 155 136 131 133 129 120 104 94 95 86 91 113 100 89 100 73 51 60 121 140 117 118 123 124 129 128 128 138 156 154 135 147 164 168 171 181 185 184 188 180 170 163 154 152 144 134 123 110 102 95 95 99 94 111 125 118 108 98 86 72 61 58 62 67 65 64 59 49 43 37 24 18 19 16 14 15 17 18 19 23 28 28 30 34
90 62 41 45 41 38 86 105 99 133 29 52 128 134 125 121 127 133 133 125 109 95 91 95 111 93 75 144 101 67 88 104 118 121 129 130 129 136 133 137 150 158 158 164 164 170 179 180 189 192 186 188 186 178 172 168 165 154 147 141 130 117 105 103 106 101 106 120 125 115 103 93 77 67 63 61 66 65 63 57 42 36 34 25 19 20 16 14 15 18 21 21 25 31 33 33 38
79 62 50 62 52 47 79 85 68 122 112 79 95 105 117 101 100 128 121 107 112 97 79 70 105 119 115 110 109 112 99 93 108 124 135 136 138 145 148 154 165 165 166 183 188 190 191 187 192 193 187 188 189 185 181 177 176 166 156 153 144 134 127 122 117 120 113 117 124 118 108 98 85 76 71 59 56 59 57 52 39 34 31 23 18 19 16 15 16 18 22 23 26 31 33 33 38
70 62 52 69 63 69 81 99 101 118 143 133 105 103 119 92 79 108 113 102 111 94 62 60 99 135 127 105 113 125 108 103 117 134 139 141 146 150 160 169 179 179 179 188 192 196 192 189 189 189 189 189 190 192 193 188 184 180 171 161 154 148 141 132 121 134 147 133 127 118 108 106 101 78 72 65 55 47 45 44 34 34 31 23 19 19 15 13 14 17 22 25 29 33 36 33 33
50 18 5 71 49 57 155 153 132 140 144 122 95 103 118 101 81 98 108 106 112 92 69 80 104 130 117 104 130 121 114 130 143 151 142 143 148 154 164 173 188 195 196 199 198 193 188 188 185 185 188 191 194 195 199 199 195 192 181 167 162 159 146 136 120 134 156 141 137 120 111 121 117 85 62 60 56 30 26 29 27 33 29 23 19 15 12 11 10 13 18 24 31 37 40 40 36
37 346 49 85 69 210 176 146 149 145 121 105 94 130 131 98 66 92 108 101 109 93 70 63 100 138 110 108 146 131 126 147 155 154 147 149 153 162 169 171 187 201 206 210 211 199 184 184 184 184 187 193 197 198 204 203 201 199 189 182 183 178 161 149 126 130 153 130 125 122 142 150 102 101 58 40 45 23 21 13 12 23 20 20 16 10 10 9 7 9 14 22 30 36 41 42 41
50 30 73 103 196 145 126 129 159 129 109 165 162 153 151 101 57 64 99 90 99 99 71 48 76 128 108 123 151 151 155 159 151 143 152 160 166 175 179 176 184 197 206 213 222 217 190 184 185 185 188 193 198 200 204 206 207 206 203 200 199 194 182 169 147 137 144 133 103 5 263 234 74 59 354 12 24 17 19 7 5 13 11 12 11 9 12 10 7 8 13 21 29 37 42 42 39
59 57 93 132 308 113 118 121 158 124 144 241 166 153 138 104 71 73 93 83 76 98 97 69 86 102 115 129 157 183 182 169 155 149 160 167 179 181 184 187 186 191 198 210 218 222 210 196 189 188 190 193 200 201 201 207 211 212 212 211 207 207 208 198 185 173 162 151 137 123 277 264 269 326 340 342 345 354 1 359 3 7 4 5 6 11 12 9 9 10 15 21 26 34 41 43 40
50 39 99 84 0 51 135 152 150 124 168 236 158 147 113 97 90 81 93 95 89 106 123 114 100 105 151 166 176 189 187 186 179 173 174 174 184 180 186 190 191 192 193 202 208 212 210 205 198 194 195 195 199 202 201 205 210 213 214 213 212 211 216 213 202 196 186 170 171 171 178 210 226 266 297 310 319 332 342 348 354 356 358 1 5 12 11 9 11 13 18 22 25 28 31 36 36
43 41 79 62 349 269 212 153 121 107 206 206 156 142 107 95 106 92 92 115 121 125 145 108 90 108 147 167 169 179 186 192 181 175 173 174 183 182 188 191 195 197 195 199 202 205 204 201 200 198 200 201 200 200 201 205 208 211 211 211 209 209 218 223 213 201 203 208 218 224 207 198 203 234 270 288 303 320 335 344 349 357 1 2 8 11 7 9 14 15 18 23 28 28 27 28 28
34 45 68 50 295 178 270 107 128 151 190 193 163 149 127 106 106 107 108 129 130 132 137 100 91 118 132 147 162 181 194 187 176 172 167 166 184 191 195 196 198 201 201 203 202 203 205 203 200 196 201 205 205 203 201 203 208 211 213 214 212 214 218 219 214 197 202 249 254 235 219 206 207 227 239 248 276 308 331 352 356 0 360 2 11 10 7 11 11 13 17 24 30 32 30 29 26
32 85 78 52 202 16 289 204 156 150 144 173 164 144 138 142 145 134 115 124 132 127 123 122 131 131 129 141 154 174 187 184 175 172 169 168 183 198 205 203 200 203 206 209 210 206 203 207 207 202 201 201 205 208 204 202 207 211 215 218 218 219 217 215 218 207 211 236 235 218 212 204 204 224 227 222 235 270 319 354 346 345 351 0 12 13 16 14 4 4 11 19 23 26 29 28 26
46 94 81 189 181 41 13 93 108 130 142 157 141 105 132 152 155 150 134 139 139 121 110 133 147 136 128 147 155 162 171 173 169 174 177 177 188 203 215 218 214 213 214 215 220 217 210 209 210 209 208 201 200 205 205 205 208 212 215 219 223 224 221 223 228 228 226 229 220 209 207 201 206 222 223 218 218 240 294 315 325 335 346 356 9 18 28 23 2 350 358 10 13 20 23 22 25
35 69 82 244 193 76 49 73 78 120 139 138 129 115 133 149 153 156 160 138 138 141 149 157 166 161 153 159 166 163 166 167 163 173 183 189 199 212 227 238 239 236 231 227 228 230 225 218 212 208 209 205 200 200 202 208 209 209 213 216 222 226 225 225 224 225 226 228 221 214 210 202 208 214 210 208 207 249 285 280 302 330 342 354 9 18 37 30 356 340 349 359 1 12 19 18 20
11 79 144 214 163 92 58 81 79 102 123 126 133 126 131 151 159 169 162 119 133 176 175 185 190 180 167 169 182 177 175 173 163 168 181 193 206 221 238 246 252 253 250 247 240 235 235 229 218 209 207 205 201 198 199 206 208 203 201 200 206 214 219 221 220 220 225 228 223 217 212 203 205 203 205 214 205 214 234 250 318 350 347 12 23 3 28 23 341 332 341 348 352 357 6 13 15
46 90 138 104 95 116 116 110 98 100 112 121 128 115 132 157 164 191 190 175 209 190 185 194 193 184 174 178 188 188 187 182 174 176 179 191 208 226 245 253 260 261 259 259 251 238 234 233 226 213 207 206 201 195 195 204 209 202 194 194 199 203 208 212 214 218 223 225 219 214 213 208 211 210 212 217 203 191 192 221 292 171 169 223 59 350 11 14 307 316 331 343 349 346 349 2 11
74 96 85 69 79 135 154 138 132 128 120 122 131 136 145 153 190 229 210 211 213 192 185 185 186 188 191 194 195 197 197 192 192 197 201 210 224 238 249 256 261 261 259 258 245 235 236 234 229 215 203 200 195 189 193 200 203 200 196 198 203 206 209 208 204 211 217 218 214 211 214 215 217 216 217 219 212 210 213 226 233 199 184 217 222 245 273 244 280 313 329 340 340 341 345 350 359
99 240 41 66 83 130 156 177 163 170 148 137 142 160 179 180 202 227 209 210 209 192 182 181 189 198 207 209 203 202 202 200 203 208 219 226 233 245 250 254 255 255 253 249 240 234 235 232 226 214 198 192 187 187 193 195 194 195 198 201 204 210 214 212 205 206 210 213 213 208 206 212 213 215 215 215 213 217 232 228 229 232 210 211 251 278 283 260 277 309 311 309 313 325 338 339 345
85 95 347 49 99 156 189 221 217 225 202 185 215 224 228 223 224 237 216 205 200 193 188 189 202 210 213 213 206 204 205 205 208 213 223 228 232 242 251 256 255 255 250 241 235 230 229 224 217 207 195 189 187 190 194 193 191 192 197 201 205 210 214 213 209 206 206 209 214 213 213 217 215 211 210 214 222 228 235 240 252 254 233 227 267 280 275 257 261 280 275 273 291 307 319 327 337
72 88 354 344 244 217 220 227 226 233 227 210 224 243 251 251 247 259 233 210 202 199 200 204 211 215 215 212 206 201 204 209 213 222 231 233 233 238 247 255 255 255 250 238 229 222 219 212 205 197 191 189 189 190 192 191 191 193 197 201 205 209 212 214 214 209 207 209 213 217 221 223 221 219 222 227 238 246 240 236 247 247 251 261 256 254 253 254 257 259 262 267 282 299 310 320 328
59 28 329 294 265 262 237 224 225 227 231 220 208 233 258 247 219 243 223 202 202 203 202 207 211 214 213 208 202 198 201 210 218 228 236 239 239 241 245 249 250 249 241 235 225 212 205 198 194 190 187 187 187 189 190 189 192 197 197 201 206 209 212 217 219 217 214 213 214 215 217 221 229 234 238 245 245 245 241 229 227 231 245 245 232 232 239 249 254 254 255 254 262 282 297 304 307
2 343 319 287 278 280 245 224 222 211 218 222 207 226 269 210 204 236 213 196 200 204 200 204 209 212 210 204 201 200 203 210 222 233 238 243 246 254 259 255 248 240 233 228 216 202 194 189 186 187 187 184 184 188 189 189 194 199 200 204 209 211 214 218 219 219 218 218 217 215 219 223 227 228 234 250 245 234 233 231 231 227 224 225 228 239 246 253 260 260 248 235 247 266 273 277 283
288 313 317 297 320 305 244 226 210 192 190 205 190 301 292 208 221 238 209 194 195 200 201 202 206 210 206 201 202 204 208 216 226 236 243 248 254 263 268 266 255 240 231 216 204 195 189 184 179 179 185 185 182 184 189 192 196 200 203 206 207 210 214 215 213 215 218 221 222 222 229 234 235 240 247 259 254 232 221 224 232 224 220 232 250 256 256 259 265 263 251 248 258 263 267 271 279
270 257 152 314 354 325 254 227 195 180 168 175 161 305 274 246 237 210 192 191 189 194 199 199 203 207 204 200 203 207 211 220 230 238 245 251 256 263 264 263 255 240 228 211 197 188 183 180 175 170 174 185 187 187 191 195 198 200 203 205 206 208 206 203 204 208 217 223 228 235 237 236 235 238 236 241 236 213 205 213 221 219 223 236 240 244 249 256 274 282 270 272 275 280 288 293 296
263 336 69 20 356 290 296 188 167 164 178 169 144 246 258 274 239 188 185 192 192 194 195 198 202 205 206 205 206 211 215 221 230 236 239 244 249 253 255 255 250 238 226 207 193 185 178 171 172 172 171 177 182 189 197 198 202 201 198 204 208 205 193 191 197 200 215 225 226 230 225 211 204 202 200 205 211 204 210 225 232 233 233 232 225 227 244 267 302 299 282 281 285 293 300 303 307
44 42 315 335 166 265 315 150 163 158 186 175 145 213 264 277 216 186 185 191 196 199 197 199 203 205 207 209 210 214 219 223 227 230 233 237 239 240 242 245 244 236 221 198 184 181 172 161 163 171 171 174 178 188 197 194 197 197 194 201 203 196 188 189 198 205 214 213 207 208 205 197 196 201 207 214 225 228 232 238 240 238 234 244 258 266 269 277 288 280 275 282 290 301 308 313 315
354 137 251 268 181 268 319 220 187 161 139 188 193 214 267 277 199 188 190 194 199 202 202 203 205 208 208 209 212 215 219 223 224 226 229 230 230 230 231 234 233 226 212 188 170 161 160 157 153 156 162 168 178 180 176 169 172 177 182 191 191 189 191 191 194 196 193 184 177 170 164 169 176 179 185 191 196 193 191 198 191 169 160 223 273 276 272 275 290 287 294 300 307 318 325 330 334
313 221 242 247 210 228 270 289 233 166 139 197 224 236 252 264 194 192 200 202 201 204 208 208 206 209 210 210 213 218 220 221 222 223 224 225 225 223 221 222 218 210 200 184 168 162 165 161 153 153 158 162 172 175 175 179 181 177 176 181 184 184 186 185 180 174 167 160 151 142 137 138 144 147 147 149 151 152 152 156 156 146 141 152 172 195 280 316 321 317 315 317 325 339 360 19 29
208 186 222 261 260 235 217 262 221 166 160 199 202 240 252 264 224 204 209 206 205 210 212 210 209 209 210 211 213 218 221 222 224 223 220 219 221 220 215 211 199 194 192 182 171 167 171 165 155 157 162 162 165 169 173 179 185 190 187 180 176 174 176 173 166 161 158 153 146 140 139 139 142 144 146 151 160 170 174 173 169 160 159 167 194 243 298 326 337 340 348 6 20 30 40 45 47
177 178 175 206 246 273 238 239 211 168 171 218 205 224 245 255 248 219 215 209 210 218 220 215 212 210 210 211 214 217 220 223 226 222 215 214 217 213 211 206 190 188 187 177 169 164 167 164 160 166 171 172 171 170 170 172 183 193 183 173 170 166 166 162 159 159 156 154 150 147 150 154 156 159 167 175 179 177 166 156 153 151 148 154 162 143 92 73 62 53 51 50 47 45 45 48 50
211 222 217 210 219 268 268 258 239 165 159 238 222 225 246 248 251 236 220 211 213 221 225 222 213 210 212 212 213 215 217 222 223 220 211 207 210 206 207 203 187 183 178 171 167 164 169 168 168 172 172 174 178 180 184 187 190 182 170 173 171 163 162 162 159 159 159 159 158 160 166 169 167 163 159 152 144 135 126 120 120 119 115 114 109 99 87 78 69 57 48 39 33 29 33 47 57
244 245 252 257 233 255 269 267 256 165 171 260 253 247 259 252 253 251 220 200 214 220 219 221 215 211 213 213 212 211 212 215 216 215 207 203 204 201 204 197 184 183 177 170 167 166 171 170 172 175 170 173 180 184 189 185 176 172 173 177 171 162 162 165 164 163 166 168 165 163 159 152 145 138 131 128 123 116 114 112 110 109 105 99 87 78 70 58 49 40 28 15 10 9 15 31 45
236 232 225 251 251 270 297 317 309 103 176 261 290 278 264 258 256 254 222 204 219 223 220 221 216 210 212 212 209 207 207 209 211 212 207 202 201 199 203 193 181 184 181 177 175 174 176 175 179 182 177 179 183 184 183 172 168 175 180 175 170 166 164 169 172 167 166 161 151 146 140 135 131 126 121 119 116 112 110 107 102 97 93 84 74 68 61 47 36 26 18 13 9 7 10 14 20
222 203 180 235 251 250 277 300 297 296 234 258 307 298 271 265 263 257 240 228 227 229 227 225 219 214 214 213 212 209 207 207 208 210 207 201 200 199 201 193 183 184 185 185 186 186 186 186 189 189 183 181 181 179 174 171 173 175 176 172 171 170 165 169 168 157 152 147 140 136 132 128 125 121 118 115 113 109 104 97 91 87 84 79 69 58 48 35 26 19 15 13 9 5 8 12 13
248 196 184 213 222 213 229 275 320 338 335 322 337 312 280 257 250 257 256 240 233 234 229 226 225 223 220 215 213 212 213 213 212 211 208 203 201 201 200 194 187 185 188 191 190 187 184 183 185 184 181 181 180 177 175 179 178 175 175 172 171 169 162 159 155 147 144 142 137 133 128 125 123 120 117 114 109 104 99 93 88 82 77 71 57 42 32 26 21 15 13 11 8 11 15 15 14
275 232 203 207 212 223 232 280 33 6 323 303 60 307 283 273 245 258 285 242 230 232 223 222 224 221 218 214 211 212 214 217 219 219 213 205 201 199 197 194 190 187 190 195 189 181 178 177 178 179 179 179 180 179 180 186 185 180 178 171 168 163 153 150 149 145 143 142 137 133 128 125 125 121 117 113 106 101 95 88 82 72 64 57 44 35 29 25 20 15 16 14 14 20 20 15 19
253 248 208 207 217 227 230 219 73 266 268 286 95 166 273 290 260 252 256 245 238 229 222 224 220 214 213 212 210 210 211 213 217 219 215 206 201 200 197 194 192 189 190 193 186 179 179 178 177 179 180 181 182 183 185 189 188 183 178 169 164 158 151 148 148 146 144 142 137 133 131 127 125 121 117 112 104 96 87 80 72 60 52 46 40 32 25 23 20 19 19 16 18 21 17 15 23
231 249 178 180 205 215 216 183 177 219 252 321 15 140 271 281 264 244 226 236 252 242 234 231 220 212 210 210 210 210 212 213 213 214 212 207 204 203 200 196 194 191 191 190 184 180 181 179 178 180 182 184 185 186 187 186 184 178 171 166 161 156 153 149 148 148 145 142 139 136 134 132 128 124 118 111 101 91 80 72 62 52 44 39 33 24 21 22 20 20 18 15 16 15 13 15 20
240 234 125 132 164 168 143 118 144 297 3 304 285 140 264 272 264 256 200 222 251 247 237 231 220 213 208 207 209 210 212 214 215 216 213 207 205 204 202 198 193 192 193 191 184 182 182 180 182 184 185 188 187 186 184 181 179 174 168 166 161 157 157 152 150 151 147 145 144 140 138 135 131 127 118 108 98 87 75 64 55 45 38 32 26 21 21 22 19 17 15 13 12 10 11 13 12
210 147 82 68 69 75 76 91 93 27 335 242 221 172 241 269 243 190 192 228 241 243 240 233 219 213 210 207 206 207 210 212 215 217 215 209 205 203 201 198 194 192 194 192 186 184 185 184 186 188 188 189 187 184 181 176 175 173 170 169 165 161 160 156 154 153 149 150 150 144 142 138 132 127 118 107 96 83 71 59 49 37 31 27 22 20 20 17 15 13 11 10 9 8 9 8 7
134 93 56 41 22 32 42 48 78 46 275 232 200 186 201 266 263 185 201 223 220 229 243 239 215 209 211 210 206 206 207 209 210 212 213 210 204 200 200 198 195 193 193 192 189 187 187 188 189 189 189 189 186 182 178 173 173 174 173 173 172 169 166 163 160 157 153 155 156 149 145 141 135 129 119 110 97 81 67 54 43 31 26 24 19 17 15 11 9 7 7 7 5 4 5 5 5
109 87 79 62 347 13 22 2 56 210 257 229 199 190 189 233 262 228 234 254 229 216 229 232 207 204 210 210 209 208 208 209 208 208 209 206 200 198 198 198 196 193 192 192 191 189 189 191 191 189 188 187 185 180 175 172 173 176 176 176 177 176 172 168 166 162 159 159 159 153 148 145 140 133 122 112 97 80 64 46 36 28 23 21 16 12 9 6 5 4 3 1 360 0 2 2 1
95 106 111 115 286 359 3 304 155 226 255 252 195 178 196 236 252 254 257 267 253 226 230 236 220 208 207 207 208 208 208 209 209 207 208 206 201 199 198 198 196 194 192 192 191 191 191 192 192 190 187 184 182 178 174 175 176 177 178 178 179 177 172 169 169 166 162 161 160 156 151 148 143 134 125 113 97 80 61 41 32 27 21 15 11 8 5 3 0 359 358 356 356 357 357 357 356
147 139 139 156 181 223 266 244 254 257 264 285 188 160 233 269 267 245 245 257 256 249 259 257 237 220 212 207 206 206 206 208 209 208 209 208 205 201 199 198 196 194 193 192 191 191 192 193 192 190 187 182 179 178 177 178 179 178 179 180 181 179 175 172 172 171 166 162 161 158 152 149 143 135 128 118 100 84 60 41 31 22 18 11 6 5 1 360 358 356 355 354 354 354 354 354 351
179 147 137 155 155 181 227 206 223 260 276 297 255 158 203 217 252 239 244 272 270 258 262 254 236 223 212 204 201 202 204 206 208 209 210 211 208 203 201 199 197 195 193 192 192 192 194 193 191 189 186 181 180 181 181 181 180 179 180 182 182 181 180 176 174 173 170 167 164 161 156 150 145 139 134 126 110 92 60 42 32 18 12 5 1 1 357 356 355 352 353 353 353 354 352 350 347
225 115 118 183 183 184 234 206 188 205 294 285 214 216 221 211 260 260 266 306 290 257 246 215 204 203 195 194 196 199 203 204 206 209 210 210 209 205 202 200 198 195 193 192 192 193 194 193 191 189 186 183 182 184 184 183 182 181 182 183 184 184 184 181 177 174 171 169 166 163 160 154 150 149 144 135 120 97 61 39 26 11 5 358 355 357 354 352 351 350 352 353 353 351 348 346 343
174 136 173 202 173 164 215 272 5 65 282 262 193 242 285 309 276 250 190 257 282 283 230 193 190 188 186 192 195 199 202 204 206 209 209 209 208 206 203 201 199 194 192 192 193 194 194 193 191 189 187 186 186 186 186 186 185 185 185 185 187 187 186 185 184 180 174 171 168 166 166 162 158 158 152 139 120 96 64 33 14 358 354 352 352 351 348 348 349 349 349 349 348 346 343 341 339
132 186 200 149 68 96 131 259 342 32 266 269 202 234 263 258 267 254 140 209 259 258 232 199 190 187 191 197 198 201 203 205 207 208 209 210 209 208 204 201 199 195 193 193 194 196 195 194 193 190 189 189 188 188 188 189 189 188 188 188 189 189 188 188 187 184 180 176 175 173 172 172 168 164 157 141 122 95 58 16 355 349 349 349 346 343 341 342 344 344 344 344 342 341 340 339 338
135 186 184 121 113 190 130 183 236 192 253 282 246 229 232 214 223 182 162 212 234 236 219 209 204 198 200 202 200 201 202 203 206 207 209 210 210 209 204 201 199 196 194 195 196 196 196 195 195 193 192 192 191 191 191 192 192 192 192 192 191 190 189 190 189 187 186 183 182 181 178 179 176 169 161 148 131 86 30 0 343 342 343 341 336 332 331 333 336 337 338 339 339 338 338 338 336
56 76 155 116 136 173 168 178 173 161 229 277 279 253 237 218 198 179 192 210 218 217 205 209 215 208 206 204 200 200 202 205 208 208 210 210 209 208 204 201 199 196 196 197 197 198 196 195 195 195 195 195 194 195 194 194 194 194 196 194 193 193 192 192 193 192 191 189 189 188 186 186 183 178 173 168 160 39 1 341 331 328 327 326 320 318 319 322 326 332 335 337 337 336 334 332 330
148 150 178 179 123 117 179 216 160 146 189 237 264 270 260 226 185 184 194 206 212 208 200 211 219 214 211 208 204 204 205 208 210 210 211 210 207 206 204 201 200 197 197 198 199 198 197 197 197 197 198 198 197 198 197 197 196 196 198 197 196 195 195 196 196 195 196 196 195 194 192 192 191 190 190 194 212 256 307 311 310 308 308 305 302 303 307 314 323 328 331 333 331 330 328 326 325
177 183 184 180 169 142 187 247 213 156 200 201 212 272 269 229 183 195 194 203 211 205 201 211 219 216 214 213 211 210 210 211 212 211 211 209 206 205 203 201 200 199 199 199 200 199 199 199 199 200 201 200 200 200 199 199 199 199 199 200 199 199 199 200 199 199 201 201 200 199 198 200 200 202 205 212 225 238 257 275 282 285 284 283 287 295 303 311 318 321 324 326 326 326 325 324 323